Home > Weather > Gmünd > Past weeks

Flag for Austria Weather for the Past 2 Weeks in Gmünd, Lower Austria, Austria

Now
27 °F

Sleet. Overcast.


Feels Like: 27 °F
Forecast: 25 / 36 °F
Wind: 1 mph from North

Location: Linz / Hoersching-Flughafen

Current Time: Feb 12, 2016 at 2:43:23 AM

Latest Report: Feb 12, 2016 at 1:50 AM


Visibility: 2 mi

Pressure: 29.74 "Hg

Humidity: 100%

Dew point: 27 °F

Location of GmündLocation

Historic Weather in Gmünd — Graph

°F

Gmünd Temperature Yesterday

Maximum temperature yesterday: 41 °F (at 3:20 PM)
Minimum temperature yesterday: 30 °F (at 8:50 PM)
Average temperature yesterday: 36 °F

High & Low Weather Summary for the Past Weeks

 TemperatureHumidityPressure
High55 °F (Jan 28, 2:20 PM)100% (Jan 28, 1:50 AM)30.45 "Hg (Jan 28, 1:50 AM)
Low27 °F (Feb 6, 7:20 AM)47% (Feb 8, 1:50 PM)29.24 "Hg (Feb 9, 9:20 PM)
Average41 °F84%30.00 "Hg
* Reported Jan 28 1:20 AM — Feb 12 1:20 AM, Gmünd, Weather by CustomWeather, © 2016

Note: Actual official high and low records may vary slightly from our data, if they occured in-between our weather recording intervals... More about our weather records

Advertising

Gmünd Weather History for the Previous 24 Hours

 ConditionsComfort  
Time TempWeatherWind HumidityBarometerVisibility
1:20 AM
Fri, Feb 12
27 °FLight fog.2 mph93%29.74 "Hg1 mi
12:50 AM28 °FIce fog.2 mph100%29.74 "Hg1 mi
12:20 AM30 °FSnow. Overcast.1 mph93%29.74 "Hg2 mi
11:50 PM
Thu, Feb 11
30 °FMixture of precip. Passing clouds.2 mph93%29.74 "Hg2 mi
10:20 PM30 °FClear.3 mph100%29.74 "Hg10 mi
9:50 PM30 °FClear.1 mph100%29.77 "Hg10 mi
9:20 PM32 °FClear.5 mph93%29.74 "Hg10 mi
8:50 PM30 °FClear.5 mph100%29.74 "Hg10 mi
8:20 PM32 °FClear.2 mph100%29.74 "Hg10 mi
7:50 PM34 °FClear.3 mph93%29.74 "Hg10 mi
7:20 PM34 °FClear.1 mph93%29.77 "Hg10 mi
6:50 PM34 °FClear.2 mph93%29.77 "Hg10 mi
6:20 PM36 °FClear.3 mph87%29.74 "Hg10 mi
5:50 PM37 °FPassing clouds.2 mph87%29.74 "HgN/A
5:20 PM39 °FPassing clouds.3 mph81%29.74 "HgN/A
4:50 PM39 °FPassing clouds.3 mph81%29.74 "HgN/A
4:20 PM41 °FScattered clouds.6 mph70%29.74 "HgN/A
3:50 PM41 °FScattered clouds.7 mph70%29.74 "HgN/A
3:20 PM41 °FScattered clouds.10 mph76%29.74 "HgN/A
2:50 PM39 °FPartly sunny.13 mph81%29.74 "HgN/A
2:20 PM37 °FPartly sunny.15 mph87%29.74 "HgN/A
1:50 PM37 °FBroken clouds.14 mph87%29.77 "HgN/A
1:20 PM39 °FSprinkles. Broken clouds.14 mph70%29.77 "HgN/A
12:50 PM37 °FBroken clouds.13 mph81%29.77 "HgN/A
12:20 PM39 °FBroken clouds.12 mph75%29.77 "HgN/A
11:50 AM37 °FBroken clouds.12 mph81%29.77 "HgN/A
11:20 AM37 °FBroken clouds.10 mph81%29.77 "HgN/A
10:50 AM37 °FBroken clouds.15 mph81%29.77 "HgN/A
10:20 AM37 °FPartly sunny.20 mph75%29.77 "HgN/A
9:50 AM37 °FPartly sunny.12 mph81%29.77 "HgN/A
9:20 AM36 °FSprinkles. Broken clouds.9 mph87%29.74 "HgN/A
8:50 AM36 °FSprinkles. Partly sunny.14 mph87%29.74 "HgN/A
8:20 AM36 °FBroken clouds.17 mph87%29.71 "HgN/A
7:50 AM36 °FBroken clouds.15 mph87%29.71 "HgN/A
7:20 AM36 °FLight rain. Partly sunny.20 mph87%29.71 "HgN/A
6:50 AM37 °FSnow flurries. Passing clouds.17 mph75%29.71 "HgN/A
6:20 AM37 °FPassing clouds.15 mph70%29.68 "HgN/A
5:50 AM37 °FPassing clouds.15 mph70%29.68 "HgN/A
5:20 AM37 °FPassing clouds.13 mph75%29.68 "HgN/A
4:50 AM37 °FPartly cloudy.13 mph75%29.68 "HgN/A
4:20 AM37 °FPartly cloudy.16 mph75%29.68 "HgN/A
3:50 AM36 °FLight rain. Partly cloudy.14 mph87%29.65 "HgN/A
2:50 AM37 °FSprinkles. Passing clouds.13 mph70%29.65 "HgN/A
Weather by CustomWeather, © 2016

See weather overviewHow to use our weather pages